Time,TemperatureF,DewpointF,PressureIn,WindDirection,WindDirectionDegrees,WindSpeedMPH,WindSpeedGustMPH,Humidity,HourlyPrecipIn,Conditions,Clouds,dailyrainin,SolarRadiationWatts/m^2,SoftwareType,DateUTC
2013-06-16 00:01:00,78.0,40.0,-100.00,NNW,329,0.0,12.0,26,0.00,,,0.00,0.000000,,2013-06-16 06:01:00,
2013-06-16 00:11:00,78.0,40.0,-100.00,NNW,329,0.0,12.0,26,0.00,,,0.00,0.000000,,2013-06-16 06:11:00,
2013-06-16 00:22:00,78.0,40.0,-100.00,NNW,329,0.0,12.0,26,0.00,,,0.00,0.000000,,2013-06-16 06:22:00,
2013-06-16 00:52:00,77.0,39.0,-100.00,NNE,12,5.0,7.0,26,0.00,,,0.00,0.000000,,2013-06-16 06:52:00,
2013-06-16 01:01:00,77.0,39.0,-100.00,NNE,12,5.0,7.0,26,0.00,,,0.00,0.000000,,2013-06-16 07:01:00,
2013-06-16 01:11:00,77.0,39.0,-100.00,NNE,12,5.0,7.0,26,0.00,,,0.00,0.000000,,2013-06-16 07:11:00,
2013-06-16 01:22:00,77.0,39.0,-100.00,NNE,12,5.0,7.0,26,0.00,,,0.00,0.000000,,2013-06-16 07:22:00,
2013-06-16 01:53:00,77.0,39.0,-100.00,NNW,348,9.0,16.0,26,0.00,,,0.00,0.000000,,2013-06-16 07:53:00,
2013-06-16 02:02:00,77.0,39.0,-100.00,NNW,348,9.0,16.0,26,0.00,,,0.00,0.000000,,2013-06-16 08:02:00,
2013-06-16 02:11:00,77.0,39.0,-100.00,NNW,348,9.0,16.0,26,0.00,,,0.00,0.000000,,2013-06-16 08:11:00,
2013-06-16 02:22:00,77.0,39.0,-100.00,NNW,348,9.0,16.0,26,0.00,,,0.00,0.000000,,2013-06-16 08:22:00,
2013-06-16 02:54:00,78.0,37.0,-100.00,North,352,7.0,17.0,23,0.00,,,0.00,0.000000,,2013-06-16 08:54:00,
2013-06-16 03:02:00,78.0,37.0,-100.00,North,352,7.0,17.0,23,0.00,,,0.00,0.000000,,2013-06-16 09:02:00,
2013-06-16 03:11:00,78.0,37.0,-100.00,North,352,7.0,17.0,23,0.00,,,0.00,0.000000,,2013-06-16 09:11:00,
2013-06-16 03:22:00,78.0,37.0,-100.00,North,352,7.0,17.0,23,0.00,,,0.00,0.000000,,2013-06-16 09:22:00,
2013-06-16 03:52:00,77.0,35.0,-100.00,NW,314,7.0,13.0,22,0.00,,,0.00,0.000000,,2013-06-16 09:52:00,
2013-06-16 04:01:00,77.0,35.0,-100.00,NW,314,7.0,13.0,22,0.00,,,0.00,0.000000,,2013-06-16 10:01:00,
2013-06-16 04:12:00,77.0,35.0,-100.00,NW,314,7.0,13.0,22,0.00,,,0.00,0.000000,,2013-06-16 10:12:00,
2013-06-16 04:22:00,77.0,35.0,-100.00,NW,314,7.0,13.0,22,0.00,,,0.00,0.000000,,2013-06-16 10:22:00,
2013-06-16 04:54:00,71.0,39.0,-100.00,ESE,123,1.0,15.0,31,0.00,,,0.00,0.000000,,2013-06-16 10:54:00,
2013-06-16 05:02:00,71.0,39.0,-100.00,ESE,123,1.0,15.0,31,0.00,,,0.00,0.000000,,2013-06-16 11:02:00,
2013-06-16 05:11:00,71.0,39.0,-100.00,ESE,123,1.0,15.0,31,0.00,,,0.00,0.000000,,2013-06-16 11:11:00,
2013-06-16 05:22:00,71.0,39.0,-100.00,ESE,123,1.0,15.0,31,0.00,,,0.00,0.000000,,2013-06-16 11:22:00,
2013-06-16 05:53:00,74.0,40.0,-100.00,East,95,6.0,11.0,29,0.00,,,0.00,0.000000,,2013-06-16 11:53:00,
2013-06-16 06:02:00,74.0,40.0,-100.00,East,95,6.0,11.0,29,0.00,,,0.00,0.000000,,2013-06-16 12:02:00,
2013-06-16 06:11:00,74.0,40.0,-100.00,East,95,6.0,11.0,29,0.00,,,0.00,0.000000,,2013-06-16 12:11:00,
2013-06-16 06:22:00,74.0,40.0,-100.00,East,95,6.0,11.0,29,0.00,,,0.00,0.000000,,2013-06-16 12:22:00,
2013-06-16 06:53:00,72.0,41.0,-100.00,East,97,3.0,10.0,33,0.00,,,0.00,4.000000,,2013-06-16 12:53:00,
2013-06-16 07:01:00,72.0,41.0,-100.00,East,97,3.0,10.0,33,0.00,,,0.00,4.000000,,2013-06-16 13:01:00,
2013-06-16 07:11:00,72.0,41.0,-100.00,East,97,3.0,10.0,33,0.00,,,0.00,4.000000,,2013-06-16 13:11:00,
2013-06-16 07:22:00,72.0,41.0,-100.00,East,97,3.0,10.0,33,0.00,,,0.00,4.000000,,2013-06-16 13:22:00,
2013-06-16 07:54:00,73.0,41.0,-100.00,SSW,201,0.0,5.0,32,0.00,,,0.00,79.000000,,2013-06-16 13:54:00,
2013-06-16 08:02:00,73.0,41.0,-100.00,SSW,201,0.0,5.0,32,0.00,,,0.00,79.000000,,2013-06-16 14:02:00,
2013-06-16 08:12:00,73.0,41.0,-100.00,SSW,201,0.0,5.0,32,0.00,,,0.00,79.000000,,2013-06-16 14:12:00,
2013-06-16 08:22:00,73.0,41.0,-100.00,SSW,201,0.0,5.0,32,0.00,,,0.00,79.000000,,2013-06-16 14:22:00,
2013-06-16 08:53:00,79.0,41.0,-100.00,West,259,2.0,6.0,26,0.00,,,0.00,332.000000,,2013-06-16 14:53:00,
2013-06-16 09:02:00,79.0,41.0,-100.00,West,259,2.0,6.0,26,0.00,,,0.00,332.000000,,2013-06-16 15:02:00,
2013-06-16 09:12:00,79.0,41.0,-100.00,West,259,2.0,6.0,26,0.00,,,0.00,332.000000,,2013-06-16 15:12:00,
2013-06-16 09:23:00,79.0,41.0,-100.00,West,259,2.0,6.0,26,0.00,,,0.00,332.000000,,2013-06-16 15:23:00,
2013-06-16 09:53:00,80.0,42.0,-100.00,SW,219,3.0,8.0,26,0.00,,,0.00,539.000000,,2013-06-16 15:53:00,
2013-06-16 10:02:00,80.0,42.0,-100.00,SW,219,3.0,8.0,26,0.00,,,0.00,539.000000,,2013-06-16 16:02:00,
2013-06-16 10:12:00,80.0,42.0,-100.00,SW,219,3.0,8.0,26,0.00,,,0.00,539.000000,,2013-06-16 16:12:00,
2013-06-16 10:22:00,80.0,42.0,-100.00,SW,219,3.0,8.0,26,0.00,,,0.00,539.000000,,2013-06-16 16:22:00,
2013-06-16 10:53:00,82.0,43.0,-100.00,SW,224,5.0,12.0,25,0.00,,,0.00,547.000000,,2013-06-16 16:53:00,
2013-06-16 11:02:00,82.0,43.0,-100.00,SW,224,5.0,12.0,25,0.00,,,0.00,547.000000,,2013-06-16 17:02:00,
2013-06-16 11:12:00,82.0,43.0,-100.00,SW,224,5.0,12.0,25,0.00,,,0.00,547.000000,,2013-06-16 17:12:00,
2013-06-16 11:22:00,82.0,43.0,-100.00,SW,224,5.0,12.0,25,0.00,,,0.00,547.000000,,2013-06-16 17:22:00,
2013-06-16 11:53:00,86.0,43.0,-100.00,SW,229,6.0,11.0,22,0.00,,,0.00,1062.000000,,2013-06-16 17:53:00,
2013-06-16 12:02:00,86.0,43.0,-100.00,SW,229,6.0,11.0,22,0.00,,,0.00,1062.000000,,2013-06-16 18:02:00,
2013-06-16 12:12:00,86.0,43.0,-100.00,SW,229,6.0,11.0,22,0.00,,,0.00,1062.000000,,2013-06-16 18:12:00,
2013-06-16 12:22:00,86.0,43.0,-100.00,SW,229,6.0,11.0,22,0.00,,,0.00,1062.000000,,2013-06-16 18:22:00,
2013-06-16 12:52:00,89.0,41.0,-100.00,SW,229,7.0,11.0,19,0.00,,,0.00,930.000000,,2013-06-16 18:52:00,
2013-06-16 13:01:00,89.0,41.0,-100.00,SW,229,7.0,11.0,19,0.00,,,0.00,930.000000,,2013-06-16 19:01:00,
2013-06-16 13:11:00,89.0,41.0,-100.00,SW,229,7.0,11.0,19,0.00,,,0.00,930.000000,,2013-06-16 19:11:00,
2013-06-16 13:22:00,89.0,41.0,-100.00,SW,229,7.0,11.0,19,0.00,,,0.00,930.000000,,2013-06-16 19:22:00,
2013-06-16 13:53:00,91.0,40.0,-100.00,SW,219,5.0,13.0,17,0.00,,,0.00,1210.000000,,2013-06-16 19:53:00,
2013-06-16 14:02:00,91.0,40.0,-100.00,SW,219,5.0,13.0,17,0.00,,,0.00,1210.000000,,2013-06-16 20:02:00,
2013-06-16 14:11:00,91.0,40.0,-100.00,SW,219,5.0,13.0,17,0.00,,,0.00,1210.000000,,2013-06-16 20:11:00,
2013-06-16 14:22:00,91.0,40.0,-100.00,SW,219,5.0,13.0,17,0.00,,,0.00,1210.000000,,2013-06-16 20:22:00,
2013-06-16 14:53:00,91.0,40.0,-100.00,West,262,7.0,16.0,17,0.00,,,0.00,1081.000000,,2013-06-16 20:53:00,
2013-06-16 15:01:00,91.0,40.0,-100.00,West,262,7.0,16.0,17,0.00,,,0.00,1081.000000,,2013-06-16 21:01:00,
2013-06-16 15:11:00,91.0,40.0,-100.00,West,262,7.0,16.0,17,0.00,,,0.00,1081.000000,,2013-06-16 21:11:00,
2013-06-16 15:22:00,91.0,40.0,-100.00,West,262,7.0,16.0,17,0.00,,,0.00,1081.000000,,2013-06-16 21:22:00,
2013-06-16 15:53:00,91.0,37.0,-100.00,ENE,77,5.0,20.0,15,0.00,,,0.00,1033.000000,,2013-06-16 21:53:00,
2013-06-16 16:01:00,91.0,37.0,-100.00,ENE,77,5.0,20.0,15,0.00,,,0.00,1033.000000,,2013-06-16 22:01:00,
2013-06-16 16:12:00,91.0,37.0,-100.00,ENE,77,5.0,20.0,15,0.00,,,0.00,1033.000000,,2013-06-16 22:12:00,
2013-06-16 16:22:00,91.0,37.0,-100.00,ENE,77,5.0,20.0,15,0.00,,,0.00,1033.000000,,2013-06-16 22:22:00,
2013-06-16 16:52:00,92.0,38.0,-100.00,WSW,245,12.0,23.0,15,0.00,,,0.00,973.000000,,2013-06-16 22:52:00,
2013-06-16 17:01:00,92.0,38.0,-100.00,WSW,245,12.0,23.0,15,0.00,,,0.00,973.000000,,2013-06-16 23:01:00,
2013-06-16 17:11:00,92.0,38.0,-100.00,WSW,245,12.0,23.0,15,0.00,,,0.00,973.000000,,2013-06-16 23:11:00,
2013-06-16 17:22:00,92.0,38.0,-100.00,WSW,245,12.0,23.0,15,0.00,,,0.00,973.000000,,2013-06-16 23:22:00,
2013-06-16 17:52:00,93.0,40.0,-100.00,SW,229,9.0,18.0,16,0.00,,,0.00,778.000000,,2013-06-16 23:52:00,
2013-06-16 18:02:00,93.0,40.0,-100.00,SW,229,9.0,18.0,16,0.00,,,0.00,778.000000,,2013-06-17 00:02:00,
2013-06-16 18:11:00,93.0,40.0,-100.00,SW,229,9.0,18.0,16,0.00,,,0.00,778.000000,,2013-06-17 00:11:00,
2013-06-16 18:22:00,93.0,40.0,-100.00,SW,229,9.0,18.0,16,0.00,,,0.00,778.000000,,2013-06-17 00:22:00,
2013-06-16 18:52:00,92.0,39.0,-100.00,WSW,242,7.0,19.0,16,0.00,,,0.00,488.000000,,2013-06-17 00:52:00,
2013-06-16 19:02:00,92.0,39.0,-100.00,WSW,242,7.0,19.0,16,0.00,,,0.00,488.000000,,2013-06-17 01:02:00,
2013-06-16 19:11:00,92.0,39.0,-100.00,WSW,242,7.0,19.0,16,0.00,,,0.00,488.000000,,2013-06-17 01:11:00,
2013-06-16 19:22:00,92.0,39.0,-100.00,WSW,242,7.0,19.0,16,0.00,,,0.00,488.000000,,2013-06-17 01:22:00,
2013-06-16 19:53:00,88.0,39.0,-100.00,WSW,244,4.0,16.0,18,0.00,,,0.00,140.000000,,2013-06-17 01:53:00,
2013-06-16 20:02:00,88.0,39.0,-100.00,WSW,244,4.0,16.0,18,0.00,,,0.00,140.000000,,2013-06-17 02:02:00,
2013-06-16 20:12:00,88.0,39.0,-100.00,WSW,244,4.0,16.0,18,0.00,,,0.00,140.000000,,2013-06-17 02:12:00,
2013-06-16 20:22:00,88.0,39.0,-100.00,WSW,244,4.0,16.0,18,0.00,,,0.00,140.000000,,2013-06-17 02:22:00,
2013-06-16 20:53:00,86.0,38.0,-100.00,SW,227,8.0,15.0,18,0.00,,,0.00,19.000000,,2013-06-17 02:53:00,
2013-06-16 21:02:00,86.0,38.0,-100.00,SW,227,8.0,15.0,18,0.00,,,0.00,19.000000,,2013-06-17 03:02:00,
2013-06-16 21:12:00,86.0,38.0,-100.00,SW,227,8.0,15.0,18,0.00,,,0.00,19.000000,,2013-06-17 03:12:00,
2013-06-16 21:22:00,86.0,38.0,-100.00,SW,227,8.0,15.0,18,0.00,,,0.00,19.000000,,2013-06-17 03:22:00,
2013-06-16 21:54:00,82.0,44.0,-100.00,SSE,160,9.0,23.0,26,0.00,,,0.00,0.000000,,2013-06-17 03:54:00,
2013-06-16 22:02:00,82.0,44.0,-100.00,SSE,160,9.0,23.0,26,0.00,,,0.00,0.000000,,2013-06-17 04:02:00,
2013-06-16 22:12:00,82.0,44.0,-100.00,SSE,160,9.0,23.0,26,0.00,,,0.00,0.000000,,2013-06-17 04:12:00,
2013-06-16 22:22:00,82.0,44.0,-100.00,SSE,160,9.0,23.0,26,0.00,,,0.00,0.000000,,2013-06-17 04:22:00,
2013-06-16 22:53:00,77.0,44.0,-100.00,SE,145,9.0,25.0,31,0.00,,,0.00,0.000000,,2013-06-17 04:53:00,
2013-06-16 23:02:00,77.0,44.0,-100.00,SE,145,9.0,25.0,31,0.00,,,0.00,0.000000,,2013-06-17 05:02:00,
2013-06-16 23:12:00,77.0,44.0,-100.00,SE,145,9.0,25.0,31,0.00,,,0.00,0.000000,,2013-06-17 05:12:00,
2013-06-16 23:22:00,77.0,44.0,-100.00,SE,145,9.0,25.0,31,0.00,,,0.00,0.000000,,2013-06-17 05:22:00,
2013-06-16 23:53:00,77.0,43.0,-100.00,ESE,114,8.0,16.0,30,0.00,,,0.00,0.000000,,2013-06-17 05:53:00,